Regional Weather Roundup
Issued by NWS

Home | Current Version | Previous Version | Text Only | Print | Product List | Glossary Off
Versions: 1 2 3 4 5 6 7 8 9 10 11 12 13 14 15 16 17 18 19 20 21 22 23 24 25 26 27 28 29 30 31 32 33 34 35 36 37 38 39 40 41 42 43 44 45 46 47 48 49 50

000
ASUS43 KMPX 231601
RWRMN
WEATHER ROUNDUP FOR MINNESOTA
NATIONAL WEATHER SERVICE TWIN CITIES/CHANHASSEN MN
1100 AM CDT SAT MAY 23 2015


NOTE: "FAIR" INDICATES FEW OR NO CLOUDS BELOW 12,000 FEET WITH NO
SIGNIFICANT WEATHER AND/OR OBSTRUCTIONS TO VISIBILITY. N/A MEANS
CURRENT SKY AND/OR WEATHER CONDITIONS ARE NOT AVAILABLE.

MNZ060>063-068>070-231700-
   Twin Cities Metro

CITY           SKY/WX    TMP DP  RH WIND       PRES   REMARKS
TWIN CITIES    CLOUDY    66  44  45 N10       30.24F
ST PAUL        CLOUDY    66  47  50 N3        30.26F
BLAINE         CLOUDY    66  46  48 SW7       30.26R
LAKEVILLE      CLOUDY    64  45  48 N8        30.24S
EDEN PRAIRIE   CLOUDY    67  45  45 N7        30.23F
SOUTH ST PAUL  CLOUDY    64  46  52 N8        30.24F
LAKE ELMO      FAIR      64  50  59 CALM      30.27R
$$
MNZ001>005-007-008-013>017-022>024-027-028-231700-
   Northwest Minnesota

CITY           SKY/WX    TMP DP  RH WIND       PRES   REMARKS
BEMIDJI        SUNNY     69  45  42 SW9       30.18S
HALLOCK        SUNNY     72  43  35 S7        30.12S
ROSEAU         SUNNY     73  37  27 W8        30.14F
WARROAD        SUNNY     73  43  33 SW9       30.14F
THIEF RVR FALL SUNNY     66  46  48 S10       30.16F
CROOKSTON      SUNNY     66  46  48 SW9       30.16S
FOSSTON        SUNNY     66  45  45 S15G21    30.18F
DETROIT LAKES  SUNNY     64  43  45 SW7       30.22S
MOORHEAD       SUNNY     66  45  45 SW10G16   30.20S
PARK RAPIDS    SUNNY     70  42  36 SW10      30.20F
MAHNOMEN       FAIR      66  41  40 W13       30.19F
$$
MNZ006-009>011-018-025>026-231700-
   North Central Minnesota

CITY           SKY/WX    TMP DP  RH WIND       PRES   REMARKS
BAUDETTE       SUNNY     74  37  26 SW9       30.14F
FLAG ISLAND    SUNNY     61  43  51 SE7       30.12F
INTL FALLS     SUNNY     73  39  29 W8        30.15F
WASKISH        SUNNY     70  46  43 CALM      30.17S
BIG FORK       SUNNY     75  39  27 S12G17    30.18F
LONGVILLE      SUNNY     70  45  40 S8        30.20F
GRAND RAPIDS   SUNNY     72  37  28 SW7       30.20F
CRANE LAKE     SUNNY     72  34  25 W3        30.18S
ORR            SUNNY     73  30  20 CALM      30.16S
COOK           SUNNY     72  37  28 SW7       30.18F
WALKER         FAIR      66  43  42 W7        30.19F
$$
MNZ012-019>021-037-231700-
   Northeast Minnesota

CITY           SKY/WX    TMP DP  RH WIND       PRES   REMARKS
DULUTH         SUNNY     74  38  27 SW9       30.20F
ELY            SUNNY     72  34  25 SW10      30.18S
HIBBING        SUNNY     73  33  23 VRB7      30.19F
EVELETH        SUNNY     72  37  28 W7        30.20F
DULUTH HARBOR  SUNNY     73  37  27 SW8       30.20F
TWO HARBORS    SUNNY     77  46  33 SW8G16    30.17F
SILVER BAY     SUNNY     75  37  25 SW7G16    30.16F
GRAND MARAIS     N/A     50  38  63 W14       30.15S
G MARAIS ARPRT MOSUNNY   73  34  23 W12G20    30.18S
$$
MNZ029>031-032-039>041-046>048-054>057-064-231700-
   West Central Minnesota

CITY           SKY/WX    TMP DP  RH WIND       PRES   REMARKS
FERGUS FALLS   SUNNY     66  43  42 S6        30.22S
WHEATON        MOSUNNY   63  43  48 SE14      30.23S
MORRIS         CLOUDY    63  45  51 E8        30.22S
ALEXANDRIA     MOSUNNY   64  41  42 SW9       30.25S
ELBOW LAKE     FAIR      65  44  45 SE6       30.22S
WADENA         SUNNY     66  43  42 W8        30.22S
GLENWOOD       PTSUNNY   63  43  48 S6        30.25R
APPLETON       MOSUNNY   64  45  48 SE9       30.22R
BENSON         CLOUDY    63  45  51 CALM      30.23S
ORTONVILLE     CLOUDY    64  45  48 SE10      30.22R
MADISON        CLOUDY    64  45  48 SE15      30.22R
WILLMAR        FAIR      63  48  59 SE5       30.26S
$$
MNZ033>034-036-042>043-049>051-058-059-231700-
   Central Minnesota

CITY           SKY/WX    TMP DP  RH WIND       PRES   REMARKS
ST CLOUD       PTSUNNY   65  45  48 SW10      30.25R
SAUK CENTRE    FAIR      65  41  42 SE5       30.24S
PAYNESVILLE    CLOUDY    60  44  55 CALM      30.25S
AITKIN         SUNNY     70  45  40 S6        30.20S
PINE RIVER     SUNNY     66  46  48 W6        30.23F
BRAINERD       SUNNY     68  44  42 W10       30.22F
STAPLES        SUNNY     68  39  34 SW6       30.23R
LONG PRAIRIE   FAIR      64  41  42 S8        30.24S
LITTLE FALLS   MOSUNNY   68  37  32 W10       30.24R
LITCHFIELD     LGT RAIN  63  48  59 CALM      30.26R
BUFFALO        CLOUDY    63  46  53 CALM      30.26S
MAPLE LAKE     CLOUDY    65  49  55 NW7       30.25F
$$
MNZ037-044-045-052-053-231700-
   East Central Minnesota

CITY           SKY/WX    TMP DP  RH WIND       PRES   REMARKS
PRINCETON      PTSUNNY   68  46  45 W7        30.25R
MORA           SUNNY     66  46  48 SW6       30.24S
CAMBRIDGE      MOSUNNY   70  50  49 W6        30.22S
RUSH CITY      MOSUNNY   67  45  45 CALM      30.23S
MOOSE LAKE     SUNNY     72  41  33 SW6       30.19F
HINCKLEY       FAIR      70  45  40 SW6       30.22F
CLOQUET        SUNNY     72  32  23 SW5       30.20F
MCGREGOR       SUNNY     70  37  30 S5        30.21F
$$
MNZ071>073-080-081-089-090-097-098-231700-
   Southwest Minnesota

CITY           SKY/WX    TMP DP  RH WIND       PRES   REMARKS
MONTEVIDEO     CLOUDY    63  48  59 S10       30.24R
GRANITE FALLS  CLOUDY    60  49  66 E6        30.25S
CANBY          PTSUNNY   60  50  69 SE10      30.23S
MARSHALL       PTSUNNY   57  46  67 SE12      30.22S
REDWOOD FALLS  LGT RAIN  57  54  89 CALM      30.24R
OLIVIA         LGT RAIN  57  48  72 CALM      30.24R
PIPESTONE      CLOUDY    57  46  67 SE10      30.20F
WINDOM         CLOUDY    63  48  59 SE9       30.24F
WORTHINGTON    CLOUDY    61  46  59 SE14      30.22F
JACKSON        CLOUDY    63  48  59 SE13      30.24F
TRACY          LGT RAIN  58  52  79 E7        30.23F
SLAYTON        CLOUDY    60  52  75 SE9       30.23F
$$
MNZ065>067-074>077-082>085-091>093-231700-
   South Central Minnesota

CITY           SKY/WX    TMP DP  RH WIND       PRES   REMARKS
MANKATO        CLOUDY    64  45  48 E7        30.26R
NEW ULM        CLOUDY    64  46  52 SE5       30.24S
ST JAMES       CLOUDY    63  52  67 E7        30.26S
FAIRMONT       CLOUDY    63  45  51 E9        30.24F
GLENCOE        CLOUDY    65  49  57 E6        30.25R
FARIBAULT      PTSUNNY   64  45  48 N6        30.25R
OWATONNA       PTSUNNY   64  45  48 CALM      30.26R
WASECA         CLOUDY    64  45  48 NE6       30.26R
ALBERT LEA     PTSUNNY   64  45  48 E6        30.26R
$$
MNZ078>079-086>088-094>096-231700-
   Southeast Minnesota

CITY           SKY/WX    TMP DP  RH WIND       PRES   REMARKS
ROCHESTER      CLOUDY    66  47  50 N8        30.27S
RED WING       DRIZZLE   63  45  51 CALM      30.25F
STANTON        CLOUDY    67  42  41 NE10      30.23F
DODGE CENTER   PTSUNNY   66  43  42 N8        30.26R
WINONA         PTSUNNY   70  52  52 SE3       30.25F
AUSTIN         MOSUNNY   64  46  52 E6        30.26R
PRESTON        PTSUNNY   67  44  44 N3        30.27S
$$
ABBREVIATIONS USED IN REMARKS
   TC - TEMPERATURES IN CELSIUS
  WCI - WIND CHILL INDEX
   HX - HEAT INDEX
  VSB - VISIBILITY
$$



USA.gov is the U.S. government's official web portal to all federal, state and local government web resources and services.